Weather History for KIRK - September, 2012

Change the Weather History Date:

Wednesday, September 26, 2012

  Actual Average Record
Temperature  
Mean Temperature 63 °F 60 °F  
Max Temperature 73 °F 72 °F - ()
Min Temperature 52 °F 49 °F - ()
Degree Days  
Heating Degree Days 2 6  
Month to date heating degree days 107 71  
Since 1 July heating degree days 114 78  
Cooling Degree Days 0 1  
Month to date cooling degree days 88 77  
Year to date cooling degree days 1300 921  
Growing Degree Days 13 (Base 50)    
Moisture  
Dew Point 57 °F    
Average Humidity 75    
Maximum Humidity 100    
Minimum Humidity 49    
Precipitation  
Precipitation 0.07 in 0.13 in - ()
Month to date precipitation 2.93 3.69  
Year to date precipitation 20.76 31.10  
Sea Level Pressure  
Sea Level Pressure 30.01 in    
Wind  
Wind Speed 4 mph (NNW)    
Max Wind Speed 9 mph    
Max Gust Speed 13 mph    
Visibility 9 miles    
Events Rain , Thunderstorm    
T = Trace of Precipitation, MM = Missing Value Source: NWS Daily Summary

Daily Weather History Graph

Daily Weather History Graph

Search for Another Location

Airport or City:

Trip Planner

Search our weather history database for the weather conditions in past years. The results will help you decide how hot, cold, wet, or windy it might be!

Date:

Astronomy

Sep. 26, 2012 Rise Set
Actual Time 7:02 AM CDT 6:59 PM CDT
Civil Twilight 6:35 AM CDT 7:26 PM CDT
Nautical Twilight 6:03 AM CDT 7:58 PM CDT
Astronomical Twilight 5:31 AM CDT 8:30 PM CDT
Moon 4:59 PM CDT (9/26) 3:28 AM CDT (9/26)
Length of Visible Light 12h 51m
Length of Day
11h 57m
Waxing Gibbous, 88% of the Moon is Illuminated
Sep 26
Waxing Gibbous
Sep 29
Full
Oct 8
Last Quarter
Oct 15
New
Oct 21
First Quarter

Hourly Weather History & Observations

Time (CDT) Temp. Dew Point Humidity Pressure Visibility Wind Dir Wind Speed Gust Speed Precip Events Conditions
12:55 AM 63.0 °F 61.0 °F 93% 29.90 in 7.0 mi Calm Calm - N/A   Mostly Cloudy
1:55 AM 63.0 °F 61.0 °F 93% 29.89 in 8.0 mi SSW 9.2 mph - N/A   Mostly Cloudy
2:55 AM 64.9 °F 62.1 °F 90% 29.90 in 10.0 mi West 4.6 mph - N/A   Clear
3:55 AM 63.0 °F 61.0 °F 93% 29.89 in 10.0 mi West 3.5 mph - N/A   Clear
4:55 AM 63.0 °F 61.0 °F 93% 29.90 in 9.0 mi Calm Calm - N/A   Scattered Clouds
5:55 AM 64.0 °F 62.1 °F 93% 29.93 in 10.0 mi WSW 3.5 mph - N/A   Mostly Cloudy
6:26 AM 64.4 °F 62.6 °F 94% 29.95 in 2.0 mi WSW 3.5 mph - 0.07 in Rain Light Rain
6:36 AM 64.4 °F 62.6 °F 94% 29.95 in 8.0 mi WSW 4.6 mph - 0.07 in Rain Light Rain
6:55 AM 63.0 °F 62.1 °F 97% 29.95 in 10.0 mi SW 3.5 mph - 0.07 in   Mostly Cloudy
7:55 AM 63.0 °F 62.1 °F 97% 29.96 in 8.0 mi Calm Calm - N/A   Clear
8:55 AM 64.9 °F 63.0 °F 93% 29.98 in 8.0 mi Calm Calm - N/A   Partly Cloudy
9:37 AM 64.4 °F 64.4 °F 100% 29.99 in 7.0 mi North 5.8 mph - N/A   Scattered Clouds
9:55 AM 64.0 °F 61.0 °F 90% 30.00 in 8.0 mi North 5.8 mph - N/A   Partly Cloudy
10:55 AM 64.0 °F 57.9 °F 80% 30.02 in 10.0 mi North 5.8 mph - N/A   Mostly Cloudy
11:55 AM 64.0 °F 55.9 °F 75% 30.03 in 10.0 mi North 3.5 mph - N/A   Overcast
12:17 PM 64.4 °F 55.4 °F 73% 30.05 in 10.0 mi Calm Calm - N/A Thunderstorm Overcast
12:36 PM 64.4 °F 55.4 °F 73% 30.07 in 10.0 mi Calm Calm - N/A   Overcast
12:55 PM 64.0 °F 55.0 °F 73% 30.07 in 10.0 mi Calm Calm - N/A Thunderstorm Overcast
1:26 PM 62.6 °F 55.4 °F 77% 30.04 in 10.0 mi North 5.8 mph - N/A   Clear
1:55 PM 63.0 °F 55.9 °F 78% 30.04 in 10.0 mi North 4.6 mph - N/A   Partly Cloudy
2:55 PM 66.9 °F 57.0 °F 70% 30.04 in 10.0 mi Calm Calm - N/A   Clear
3:55 PM 71.1 °F 55.0 °F 57% 30.03 in 10.0 mi NNE 4.6 mph - N/A   Clear
4:55 PM 71.1 °F 52.0 °F 51% 30.03 in 10.0 mi NNE 8.1 mph - N/A   Clear
5:55 PM 69.1 °F 55.9 °F 63% 30.05 in 10.0 mi Calm Calm - N/A   Clear
6:55 PM 66.9 °F 51.1 °F 57% 30.07 in 10.0 mi Calm Calm - N/A   Clear
7:55 PM 62.1 °F 50.0 °F 65% 30.08 in 10.0 mi Calm Calm - N/A   Clear
8:55 PM 60.1 °F 52.0 °F 75% 30.10 in 10.0 mi NNE 5.8 mph - N/A   Clear
9:55 PM 60.1 °F 48.9 °F 67% 30.12 in 10.0 mi NNE 4.6 mph - N/A   Clear
10:55 PM 55.9 °F 46.9 °F 72% 30.13 in 10.0 mi NE 6.9 mph - N/A   Clear
11:55 PM 54.0 °F 45.0 °F 72% 30.14 in 10.0 mi NNE 5.8 mph - N/A   Clear